Cape Girardeau, MO

4:59 PM CST on December 05, 2019 (GMT -0600)
Cape Girardeau Regional

Weather History for KCGI - October, 2019

Change the Weather History Date:

Friday, October 11, 2019

  Actual Average Record
Temperature  
Mean Temperature 56 °F 59 °F  
Max Temperature 74 °F 72 °F 92 °F (1963)
Min Temperature 37 °F 46 °F 29 °F (1964)
Degree Days  
Heating Degree Days 9 7  
Month to date heating degree days 25 65  
Since 1 July heating degree days 25 114  
Cooling Degree Days 0 1  
Month to date cooling degree days 51 18  
Year to date cooling degree days 1775 1440  
Growing Degree Days 6 (Base 50)    
Moisture  
Dew Point 55 °F    
Average Humidity 80    
Maximum Humidity 93    
Minimum Humidity 66    
Precipitation  
Precipitation 0.57 in 0.11 in 1.95 in (1969)
Month to date precipitation 1.75 1.27  
Year to date precipitation 49.42 35.60  
Sea Level Pressure  
Sea Level Pressure 30.01 in    
Wind  
Wind Speed 11 mph (West)    
Max Wind Speed 23 mph    
Max Gust Speed 32 mph    
Visibility 8 miles    
Events Rain , Thunderstorm    
T = Trace of Precipitation, MM = Missing Value Source: NWS Daily Summary

Daily Weather History Graph

Daily Weather History Graph

Search for Another Location

Airport or City:

Astronomy

Oct. 11, 2019 Rise Set
Actual Time 7:02 AM CDT 6:27 PM CDT
Civil Twilight 6:36 AM CDT 6:53 PM CDT
Nautical Twilight 6:05 AM CDT 7:23 PM CDT
Astronomical Twilight 5:35 AM CDT 7:53 PM CDT
Moon 5:52 PM CDT (10/11) 4:47 AM CDT (10/11)
Length of Visible Light 12h 17m
Length of Day
11h 24m
Waxing Gibbous, 96% of the Moon is Illuminated
Oct 11
Waxing Gibbous
Oct 13
Full
Oct 21
Last Quarter
Oct 27
New
Nov 4
First Quarter

Hourly Weather History & Observations

Time (CDT) Temp. Windchill Dew Point Humidity Pressure Visibility Wind Dir Wind Speed Gust Speed Precip Events Conditions
12:53 AM 73.9 °F - 64.9 °F 73% 29.90 in 10.0 mi SSE 9.2 mph - N/A   Scattered Clouds
1:53 AM 73.0 °F - 64.9 °F 76% 29.89 in 10.0 mi South 13.8 mph - N/A   Mostly Cloudy
2:53 AM 70.0 °F - 66.0 °F 87% 29.88 in 10.0 mi South 8.1 mph - 0.01 in Rain Light Rain
3:53 AM 71.1 °F - 64.9 °F 81% 29.88 in 10.0 mi South 10.4 mph - 0.01 in   Mostly Cloudy
4:53 AM 72.0 °F - 64.0 °F 76% 29.88 in 10.0 mi South 10.4 mph - N/A   Mostly Cloudy
5:53 AM 71.1 °F - 64.9 °F 81% 29.90 in 5.0 mi SSW 17.3 mph 31.1 mph 0.07 in Rain , Thunderstorm Light Rain
6:19 AM 70.0 °F - 64.9 °F 84% 29.91 in 10.0 mi SSW 11.5 mph 21.9 mph 0.02 in Rain , Thunderstorm Light Thunderstorms and Rain
6:35 AM 70.0 °F - 64.9 °F 84% 29.92 in 10.0 mi SSW 12.7 mph 19.6 mph 0.02 in Thunderstorm Mostly Cloudy
6:49 AM 69.8 °F - 66.2 °F 88% 29.92 in 10.0 mi SSW 11.5 mph - 0.02 in Rain Light Rain
6:53 AM 70.0 °F - 66.0 °F 87% 29.91 in 10.0 mi SSW 11.5 mph - 0.02 in   Mostly Cloudy
7:16 AM 70.0 °F - 66.0 °F 87% 29.92 in 10.0 mi West 6.9 mph - 0.00 in   Overcast
7:48 AM 69.8 °F - 66.2 °F 88% 29.92 in 2.5 mi WSW 4.6 mph - 0.07 in Rain Rain
7:49 AM 69.8 °F - 66.2 °F 88% 29.92 in 3.0 mi WSW 4.6 mph - 0.08 in Rain Rain
7:53 AM 69.1 °F - 66.0 °F 90% 29.91 in 3.0 mi SW 3.5 mph - 0.08 in Rain Rain
8:09 AM 69.1 °F - 66.0 °F 90% 29.93 in 10.0 mi South 4.6 mph - 0.00 in   Mostly Cloudy
8:17 AM 69.1 °F - 66.0 °F 90% 29.94 in 1.0 mi SSE 11.5 mph - 0.05 in Rain Light Rain
8:53 AM 68.0 °F - 64.9 °F 90% 29.94 in 1.0 mi South 4.6 mph - 0.22 in Rain Light Rain
9:00 AM 68.0 °F - 64.9 °F 90% 29.94 in 10.0 mi SE 4.6 mph - 0.00 in Rain Light Rain
9:17 AM 68.0 °F - 64.9 °F 90% 29.95 in 3.0 mi NNW 3.5 mph - 0.02 in Rain Rain
9:53 AM 66.9 °F - 64.9 °F 93% 29.94 in 4.0 mi North 10.4 mph - 0.09 in Rain Light Rain
10:05 AM 66.0 °F - 63.0 °F 90% 29.95 in 3.0 mi NNW 10.4 mph - 0.02 in Rain Light Rain
10:18 AM 64.9 °F - 63.0 °F 93% 29.96 in 1.8 mi NNW 9.2 mph - 0.05 in Rain Rain
10:25 AM 62.1 °F - 59.0 °F 90% 29.97 in 2.0 mi NNW 17.3 mph 27.6 mph 0.06 in Rain Light Rain
10:30 AM 60.1 °F - 57.0 °F 90% 29.98 in 3.0 mi NW 15.0 mph 28.8 mph 0.06 in Rain Light Rain
10:53 AM 55.0 °F - 52.0 °F 89% 30.00 in 10.0 mi NW 17.3 mph 28.8 mph 0.06 in Rain Light Rain
11:02 AM 55.0 °F - 51.1 °F 86% 30.01 in 10.0 mi NW 16.1 mph 25.3 mph 0.00 in Rain Light Rain
11:53 AM 53.1 °F - 48.9 °F 86% 30.03 in 10.0 mi NNW 15.0 mph 25.3 mph 0.00 in   Overcast
12:53 PM 52.0 °F - 46.9 °F 83% 30.04 in 10.0 mi NW 15.0 mph - 0.00 in Rain Light Rain
1:28 PM 51.1 °F - 46.0 °F 83% 30.05 in 10.0 mi NW 16.1 mph 25.3 mph 0.00 in Rain Light Rain
1:53 PM 50.0 °F - 45.0 °F 83% 30.06 in 10.0 mi WNW 18.4 mph - 0.00 in Rain Light Rain
2:13 PM 48.0 °F - 44.1 °F 86% 30.07 in 5.0 mi NW 16.1 mph 27.6 mph 0.01 in Rain Light Rain
2:53 PM 48.9 °F - 45.0 °F 86% 30.06 in 10.0 mi NNW 17.3 mph - 0.01 in   Overcast
3:04 PM 48.9 °F - 44.1 °F 83% 30.09 in 10.0 mi NNW 13.8 mph - N/A   Overcast
3:53 PM 48.9 °F - 44.1 °F 83% 30.10 in 10.0 mi NW 12.7 mph - 0.00 in Rain Light Rain
4:11 PM 48.9 °F - 43.0 °F 80% 30.10 in 10.0 mi NW 13.8 mph - 0.00 in   Overcast
4:53 PM 50.0 °F - 42.1 °F 74% 30.11 in 10.0 mi NW 13.8 mph 21.9 mph 0.00 in   Overcast
5:34 PM 50.0 °F - 42.1 °F 74% 30.13 in 10.0 mi NNW 12.7 mph - 0.00 in   Overcast
5:53 PM 50.0 °F - 41.0 °F 71% 30.14 in 10.0 mi NW 10.4 mph - 0.00 in   Overcast
6:53 PM 48.9 °F - 37.9 °F 66% 30.16 in 10.0 mi NNW 12.7 mph - N/A   Mostly Cloudy
7:53 PM 46.0 °F 42.5 °F 37.9 °F 73% 30.17 in 10.0 mi NNW 6.9 mph - N/A   Clear
8:53 PM 45.0 °F 41.2 °F 37.9 °F 76% 30.20 in 10.0 mi NW 6.9 mph - N/A   Clear
9:53 PM 41.0 °F 38.0 °F 37.0 °F 86% 30.22 in 10.0 mi WNW 4.6 mph - N/A   Clear
10:53 PM 39.0 °F 36.8 °F 36.0 °F 89% 30.23 in 10.0 mi WSW 3.5 mph - N/A   Clear
11:53 PM 37.9 °F 34.4 °F 36.0 °F 93% 30.23 in 10.0 mi WSW 4.6 mph - N/A   Clear